Retour au catalogue

ARIANE 2 DEB

ActifGTO
NORAD 26727·DEBRIS·🇫🇷 France

Lancé Jan 27, 1989 depuis Guiana Space Centre

Loading…

TLE

FraisSource: Space-Track

Époque: Sep 14, 2026, 13:28 UTC

1 26727U 89006E   26257.56173168  .00000012  00000-0  19141-2 0  9997
2 26727   8.3821  61.0302 7151943 103.0096 264.7266  2.29037780213736

Suivez ARIANE 2 DEB en temps réel avec AllMySat

Download on the App Store